Showing default

SKYNET 5C, 33055

Orbit data source: Space-Track

SKYNET 5C, 33055 is a payload satellite owned by Paradigm (UK) in GEO that was launched on Thu, 12 Jun 2008 UTC via an ARIANE 5ECA launch vehicle from the French Guiana (FRGUI). Payload-class satellites include a variety of spacecraft equipped with specific instruments for various scientific and technological missions. These include communications satellites like Starlink; space stations such as the ISS; scientific satellites like the Hubble; Earth observation satellites from companies like Planet Labs, Umbra, and HawkEye 360; GPS; miniature CubeSats for education and research; and military/defense satellites.

Not visible in the next 10 days
Identifier
33055, 2008-030A
Orbit
GEO
Country
Flag of UKUK
Related business
Manufacturer
EADS/Bremen
Mission
Operational Defense Communications
Bus & Motor
EUROSTAR 3000, R-4D-15-375
Mass
4,635 kg wet, 2,170 kg dry
Launch date (UTC)
2008-06-12 (18 years ago)
Launch vehicle
ARIANE 5ECA
Launch site
French Guiana (FRGUI)
Object type
Payload
Rocket body
Debris
Shape & HBR
Box + 2 Pan, 17.0 m
Radar Cross Section
41.425 m², Large (>1 m²)

Expand to show TLE details & history
Last TLE update: 17 hours ago

TLE from 17 hours ago
0 SKYNET 5C
1 33055U 08030A   25348.91229734 -.00000121  00000-0  00000-0 0  9991
2 33055   3.3175  79.2429 0003955 193.9747 121.2056  1.00272374 64106
Epoch: 2025-12-14T21:53Z
TLE epoch observation values (Epoch: 2025-12-14T21:53:42.490Z)
Latitude
-2.32115°
Longitude
-17.74201°
Altitude
35,794.97 km
Speed
3.074 km/s
True Right ascension
02h 18m 00s
True Declination
-2° 19' 08"
Sunlit
Object was in daylight at epoch
Visualization orbit readout
Latitude
Unknown
Longitude
Unknown
Altitude
Unknown
Speed
Unknown
Apparent Right ascension
Unknown
Apparent Declination
Unknown
Sunlit
N/A
Visualization observer readout
Local Sidereal Time
13:25:40
Azimuth
Unknown
Elevation
Unknown
Doppler factor
Unknown
Orbital elements
Apogee altitude
35,804.171 km
Perigee altitude
35,770.818 km
Semi-major axis
42,165.632 km
Eccentricity
0.0004
Inclination
3.3175°
RAAN
79.2429°
Arg. of periapsis
193.9747°
True anomaly
121.24435°
Mean anomaly
121.2056°
Eccentric anomaly
121.22498°
Mean motion
0.25067 °/min
Orbital period
1,436.14 mins
BSTAR
0
Loading maneuver chart data...
Computing Atmospheric mass density...
Loading historical data...
Loading historical data...
Loading historical data...
Loading historical data...
Loading historical data...
Loading historical data...
Loading historical data...

Documentation

Showing up to 5 results
|